Location: B?dimalle
(17.1788°N, 80.5377°E)
Time: 00:48:48
(UTC+00:00)

Injun/Solrad 3 - Pass Details

Date: 21 February 2026
Orbit: 872 x 984 km, 66.8° (Epoch: 7 March)

Event Time Altitude Azimuth Distance (km) Brightness Sun altitude
Rises 13:45:47 0° 2° (N) 3,615 10.9 -15.9°
Reaches altitude 10° 13:49:11 10° 20° (NNE) 2,688 10.1 -16.7°
Enters shadow 13:51:41 17° 43° (NE) 2,249 9.5 -17.3°
